User: anonymous   Login
Location: Valdosta
(30.8330°N, 83.2790°W)
Time: 18:32:37
(UTC-04:00)
Language:

Oscar 19 - Orbit

View from above orbital plane
View from above orbital plane
View from above satellite
View from above satellite

Ground track
Ground track

The orbit data is extracted from the following two-line orbital elements,

1 20442U 90005G   17142.86546258 +.00000005 +00000-0 +18046-4 0  9993
2 20442 098.5747 079.6384 0010940 218.4383 141.6022 14.32859743427931
Epoch (UTC): 22 May 2017 20:46:15
Eccentricity: 0.0010940
inclination: 98.5747°
perigee height: 774 km
apogee height: 790 km
right ascension of ascending node: 79.6384°
argument of perigee: 218.4383°
revolutions per day: 14.32859743
mean anomaly at epoch: 141.6022°
orbit number at epoch: 42793

The dashed part of the orbit path shows where the satellite is in the earth's shadow,  

DLR